Location: Borovka
(49.7741°N, 14.5280°E)
Time: 14:48:02
(UTC+00:00)

Thor Agena Rocket - Pass Details

Date: 16 February 2026
Orbit: 755 x 801 km, 99.1° (Epoch: 7 March)

Event Time Altitude Azimuth Distance (km) Brightness Sun altitude
Rises 17:37:22 0° 200° (SSW) 3,228 7.1 -12.7°
Reaches altitude 10° 17:40:05 10° 214° (SW) 2,314 6.5 -13.1°
Maximum altitude 17:44:09 24° 267° (W) 1,585 6.2 -13.8°
Drops below altitude 10° 17:48:17 10° 321° (NW) 2,352 6.5 -14.4°
Sets 17:51:05 0° 335° (NNW) 3,294 7.1 -14.9°
